Terug naar catalogus

USA 559

ActiefMilitairVLEO
NORAD 65705·PAYLOAD·🇺🇸 United States

Gelanceerd Sep 22, 2025 vanaf Vandenberg Space Force Base

Loading…

Volgende Passages (komende 24 uur)

TLE

VerouderdSource: Mike McCants

Epoch: Aug 20, 2026, 01:49 UTC

1 65705U 25213B   26232.07619895 0.00000000  00000-0  00000-0 0    09
2 65705  70.0152 226.5822 0003000 334.7533  25.2467 14.96713510    01

Volg USA 559 in realtime met AllMySat

Download on the App Store